Location: Avenches
(46.8809°N, 7.0410°E)
Time: 05:11:37
(UTC+00:00)

Cosmos 2228 - Pass Details

Date: 30 March 2020
Orbit: 588 x 619 km, 82.5° (Epoch: 29 May)

Event Time Altitude Azimuth Distance (km) Brightness Sun altitude
Exits shadow 20:22:38 82° 49° (NE) 612 2.9 -23.5°
Drops below altitude 10° 20:26:49 10° 10° (N) 1,958 5.9 -24.1°
Sets 20:29:03 0° 10° (N) 2,872 6.8 -24.4°
